Location: Sungai Bunut
(2.6333°N, 113.7333°E)
Time: 20:37:34
(UTC+00:00)

Vanguard 1 - Pass Details

Date: 03 December 2023
Orbit: 653 x 3826 km, 34.3° (Epoch: 28 February)

Event Time Altitude Azimuth Distance (km) Brightness Sun altitude
Exits shadow 17:27:40 22° 96° (E) 3,946 13.1 -63.7°
Drops below altitude 10° 17:30:52 10° 103° (ESE) 4,533 13.6 -63.2°
Sets 17:33:48 0° 108° (ESE) 5,187 14.1 -62.7°
